This is the latest recevied weather packets stored in our database for station/object KC1DMA. If no packets are shown the sender has not sent any weather packets the latest 10 day(s).
| Time | Temp. | Humidity | Pressure | Rain* | Wind** | Luminosity | Snow |
|---|---|---|---|---|---|---|---|
| 1777840639 | - | - | - | - | - | - | - |
| 1777840337 | 11.67° C | 40% | 1010.6 hPa | - | - | 473 W/m² | - |
| 1777840034 | 12.78° C | 37% | 1010.8 hPa | - | - | 591 W/m² | - |
| 1777839732 | 11.67° C | 38% | 1010.8 hPa | - | - | 298 W/m² | - |
| 1777839429 | 11.11° C | 38% | 1010.9 hPa | - | - | 245 W/m² | - |
| 1777839126 | 10.56° C | 38% | 1010.8 hPa | - | - | 621 W/m² | - |
| 1777838823 | 10.56° C | 38% | 1010.8 hPa | - | - | 172 W/m² | - |
| 1777838519 | 11.11° C | 38% | 1010.8 hPa | - | - | 240 W/m² | - |
| 1777838216 | 11.67° C | 39% | 1010.9 hPa | - | - | 235 W/m² | - |
| 1777837913 | 11.67° C | 40% | 1010.8 hPa | - | - | 244 W/m² | - |
| 1777837604 | 10.56° C | 39% | 1010.7 hPa | - | - | 564 W/m² | - |
| 1777837299 | 11.67° C | 39% | 1010.6 hPa | - | - | 717 W/m² | - |
| 1777836997 | 10.56° C | 39% | 1010.7 hPa | - | - | 785 W/m² | - |
| 1777836692 | 11.67° C | 38% | 1010.5 hPa | - | - | 280 W/m² | - |
| 1777836388 | 11.11° C | 38% | 1010.7 hPa | - | - | 721 W/m² | - |
| 1777836083 | 12.22° C | 38% | 1010.4 hPa | - | - | 295 W/m² | - |
| 1777835775 | 11.67° C | 38% | 1010.6 hPa | - | - | 709 W/m² | - |
| 1777835472 | 12.22° C | 39% | 1010.5 hPa | - | - | 861 W/m² | - |
| 1777835169 | 11.67° C | 39% | 1010.6 hPa | - | - | 853 W/m² | - |
| 1777834866 | 10.56° C | 39% | 1010.2 hPa | - | - | 263 W/m² | - |
| 1777834562 | 11.11° C | 39% | 1010.5 hPa | - | - | 228 W/m² | - |
| 1777834262 | 11.11° C | 38% | 1010.4 hPa | - | - | 270 W/m² | - |
| 1777833958 | 11.67° C | 38% | 1010.6 hPa | - | - | 288 W/m² | - |
| 1777833655 | 12.78° C | 39% | 1010.5 hPa | - | - | 862 W/m² | - |
| 1777833351 | 11.67° C | 37% | 1010.5 hPa | - | - | 612 W/m² | - |
* Rain since midnight (hover to see other rain measurements)
** Current wind speed in m/s (hover to see current wind gust speed)